Météo par heure à Kisumu

Ce jour, 27 Février, Samedi

Heure Température Précipitation Vent Pression Humidité
00:00 +21°C° 0 mm 2 m/s 663 mmHg 72%
01:00 +20°C° 0 mm 2 m/s 663 mmHg 67%
02:00 +20°C° 0 mm 2 m/s 663 mmHg 64%
03:00 +20°C° 0 mm 2 m/s 663 mmHg 63%
04:00 +20°C° 0 mm 2 m/s 663 mmHg 62%
05:00 +19°C° 0 mm 2 m/s 663 mmHg 62%
06:00 +21°C° 0 mm 2 m/s 664 mmHg 57%
07:00 +24°C° 0 mm 2 m/s 665 mmHg 52%
08:00 +27°C° 0 mm 2 m/s 666 mmHg 47%
09:00 +29°C° 0 mm 2 m/s 666 mmHg 41%
10:00 +31°C° 0 mm 2 m/s 665 mmHg 35%
11:00 +34°C° 0 mm 2 m/s 665 mmHg 29%
12:00 +34°C° 0 mm 2 m/s 664 mmHg 28%
13:00 +35°C° 0 mm 3 m/s 664 mmHg 28%
14:00 +35°C° 0 mm 3 m/s 663 mmHg 28%
15:00 +34°C° 0 mm 4 m/s 662 mmHg 34%
16:00 +32°C° 0 mm 4 m/s 662 mmHg 39%
17:00 +30°C° 0 mm 4 m/s 662 mmHg 44%
18:00 +28°C° 0 mm 3 m/s 662 mmHg 53%
19:00 +25°C° 0 mm 2 m/s 663 mmHg 62%
20:00 +23°C° 0 mm 1 m/s 663 mmHg 71%
21:00 +23°C° 0 mm 1 m/s 663 mmHg 70%
22:00 +23°C° 0 mm 2 m/s 664 mmHg 69%
23:00 +21°C° 0 mm 2 m/s 664 mmHg 68%

Demain, 28 Février, Dimanche

Heure Température Précipitation Vent Pression Humidité
00:00 +21°C° 0 mm 2 m/s 663 mmHg 66%
01:00 +21°C° 0 mm 2 m/s 663 mmHg 64%
02:00 +21°C° 0 mm 2 m/s 663 mmHg 62%
03:00 +20°C° 0 mm 2 m/s 663 mmHg 61%
04:00 +20°C° 0 mm 2 m/s 663 mmHg 59%
05:00 +20°C° 0 mm 2 m/s 663 mmHg 58%
06:00 +23°C° 0 mm 1 m/s 664 mmHg 53%
07:00 +25°C° 0 mm 1 m/s 664 mmHg 48%
08:00 +27°C° 0 mm 1 m/s 665 mmHg 43%
09:00 +29°C° 0 mm 1 m/s 665 mmHg 38%
10:00 +31°C° 0 mm 1 m/s 665 mmHg 33%
11:00 +34°C° 0 mm 2 m/s 665 mmHg 28%
12:00 +34°C° 0 mm 2 m/s 664 mmHg 28%
13:00 +35°C° 0 mm 3 m/s 663 mmHg 28%
14:00 +35°C° 0 mm 3 m/s 662 mmHg 28%
15:00 +33°C° 0 mm 4 m/s 662 mmHg 33%
16:00 +32°C° 0 mm 4 m/s 662 mmHg 38%
17:00 +30°C° 0 mm 5 m/s 662 mmHg 43%
18:00 +28°C° 0 mm 3 m/s 662 mmHg 49%
19:00 +26°C° 0 mm 2 m/s 663 mmHg 55%
20:00 +24°C° 0 mm 1 m/s 663 mmHg 61%
21:00 +24°C° 0 mm 1 m/s 663 mmHg 59%
22:00 +24°C° 0 mm 2 m/s 664 mmHg 57%
23:00 +24°C° 0 mm 2 m/s 664 mmHg 55%

Après-demain, 1 Mars, Lundi

Heure Température Précipitation Vent Pression Humidité
00:00 +23°C° 0 mm 2 m/s 664 mmHg 54%
01:00 +23°C° 0 mm 2 m/s 663 mmHg 53%
02:00 +23°C° 0 mm 2 m/s 663 mmHg 52%
03:00 +23°C° 0 mm 2 m/s 663 mmHg 52%
04:00 +21°C° 0 mm 2 m/s 663 mmHg 52%
05:00 +21°C° 0 mm 2 m/s 663 mmHg 52%
06:00 +24°C° 0 mm 2 m/s 664 mmHg 47%
07:00 +26°C° 0 mm 2 m/s 664 mmHg 42%
08:00 +28°C° 0 mm 2 m/s 665 mmHg 38%
09:00 +30°C° 0 mm 2 m/s 665 mmHg 33%
10:00 +34°C° 0 mm 2 m/s 665 mmHg 29%
11:00 +36°C° 0 mm 2 m/s 665 mmHg 24%
12:00 +36°C° 0 mm 2 m/s 664 mmHg 24%
13:00 +36°C° 0 mm 2 m/s 663 mmHg 23%
14:00 +37°C° 0 mm 2 m/s 662 mmHg 23%
15:00 +35°C° 0 mm 3 m/s 662 mmHg 30%
16:00 +33°C° 0 mm 3 m/s 662 mmHg 36%
17:00 +31°C° 0 mm 3 m/s 662 mmHg 43%
18:00 +29°C° 0 mm 2 m/s 662 mmHg 48%
19:00 +28°C° 0 mm 1 m/s 663 mmHg 54%
20:00 +26°C° 0 mm 1 m/s 663 mmHg 59%
21:00 +26°C° 0 mm 1 m/s 664 mmHg 56%
22:00 +25°C° 0 mm 1 m/s 664 mmHg 53%
23:00 +25°C° 0 mm 1 m/s 664 mmHg 50%

2 Mars, Mardi

Heure Température Précipitation Vent Pression Humidité
00:00 +24°C° 0 mm 1 m/s 664 mmHg 52%
01:00 +23°C° 0 mm 1 m/s 663 mmHg 54%
02:00 +22°C° 0 mm 1 m/s 663 mmHg 56%
03:00 +21°C° 0 mm 2 m/s 663 mmHg 57%
04:00 +21°C° 0 mm 2 m/s 663 mmHg 58%
05:00 +21°C° 0 mm 2 m/s 663 mmHg 59%
06:00 +24°C° 0 mm 2 m/s 664 mmHg 54%
07:00 +26°C° 0 mm 1 m/s 664 mmHg 48%
08:00 +28°C° 0 mm 1 m/s 665 mmHg 42%
09:00 +30°C° 0 mm 1 m/s 665 mmHg 37%
10:00 +32°C° 0 mm 2 m/s 665 mmHg 32%
11:00 +36°C° 0 mm 2 m/s 665 mmHg 27%
12:00 +36°C° 0 mm 2 m/s 664 mmHg 27%
13:00 +36°C° 0 mm 3 m/s 664 mmHg 27%
14:00 +36°C° 0 mm 3 m/s 663 mmHg 28%
15:00 +34°C° 0 mm 4 m/s 663 mmHg 34%
16:00 +33°C° 0 mm 4 m/s 663 mmHg 41%
17:00 +30°C° 0 mm 5 m/s 662 mmHg 48%
18:00 +28°C° 0 mm 3 m/s 663 mmHg 56%
19:00 +26°C° 0 mm 2 m/s 663 mmHg 65%
20:00 +24°C° 0 mm 1 m/s 663 mmHg 73%
21:00 +24°C° 0 mm 1 m/s 664 mmHg 70%
22:00 +24°C° 0 mm 1 m/s 664 mmHg 67%
23:00 +23°C° 0 mm 2 m/s 664 mmHg 64%

3 Mars, Mercredi

Heure Température Précipitation Vent Pression Humidité
00:00 +23°C° 0 mm 2 m/s 664 mmHg 61%
01:00 +23°C° 0 mm 2 m/s 663 mmHg 58%
02:00 +21°C° 0 mm 2 m/s 663 mmHg 55%
03:00 +21°C° 0 mm 2 m/s 663 mmHg 56%
04:00 +21°C° 0 mm 2 m/s 663 mmHg 57%
05:00 +21°C° 0 mm 1 m/s 663 mmHg 58%
06:00 +23°C° 0 mm 1 m/s 664 mmHg 53%
07:00 +25°C° 0 mm 1 m/s 664 mmHg 48%
08:00 +27°C° 0 mm 1 m/s 665 mmHg 44%
09:00 +29°C° 0 mm 2 m/s 665 mmHg 38%
10:00 +32°C° 0 mm 2 m/s 665 mmHg 33%
11:00 +35°C° 0 mm 2 m/s 665 mmHg 27%
12:00 +35°C° 0 mm 3 m/s 665 mmHg 27%
13:00 +36°C° 0 mm 3 m/s 664 mmHg 26%
14:00 +36°C° 0 mm 4 m/s 663 mmHg 25%
15:00 +34°C° 0 mm 4 m/s 663 mmHg 33%
16:00 +33°C° 0 mm 4 m/s 662 mmHg 40%
17:00 +30°C° 0 mm 4 m/s 662 mmHg 47%
18:00 +28°C° 0 mm 3 m/s 662 mmHg 55%
19:00 +26°C° 0 mm 2 m/s 662 mmHg 63%
20:00 +24°C° 0 mm 1 m/s 663 mmHg 71%
21:00 +23°C° 0 mm 1 m/s 663 mmHg 70%
22:00 +23°C° 0 mm 1 m/s 663 mmHg 69%
23:00 +22°C° 0 mm 1 m/s 663 mmHg 69%

4 Mars, Jeudi

Heure Température Précipitation Vent Pression Humidité
00:00 +22°C° 0 mm 1 m/s 663 mmHg 66%
01:00 +21°C° 0 mm 2 m/s 663 mmHg 63%
02:00 +21°C° 0 mm 2 m/s 663 mmHg 60%
03:00 +20°C° 0 mm 2 m/s 663 mmHg 61%
04:00 +20°C° 0 mm 2 m/s 663 mmHg 62%
05:00 +20°C° 0 mm 2 m/s 663 mmHg 63%
06:00 +23°C° 0 mm 2 m/s 663 mmHg 57%
07:00 +26°C° 0 mm 2 m/s 664 mmHg 50%
08:00 +28°C° 0 mm 2 m/s 665 mmHg 44%
09:00 +31°C° 0 mm 1 m/s 664 mmHg 36%
10:00 +33°C° 0 mm 1 m/s 664 mmHg 29%
11:00 +36°C° 0 mm 1 m/s 664 mmHg 21%
12:00 +37°C° 0 mm 2 m/s 664 mmHg 20%
13:00 +38°C° 0 mm 2 m/s 663 mmHg 19%
14:00 +38°C° 0 mm 2 m/s 662 mmHg 18%
15:00 +36°C° 0 mm 3 m/s 662 mmHg 25%
16:00 +34°C° 0 mm 4 m/s 662 mmHg 32%
17:00 +32°C° 0 mm 4 m/s 661 mmHg 39%
18:00 +29°C° 0 mm 3 m/s 661 mmHg 47%
19:00 +27°C° 0 mm 2 m/s 662 mmHg 55%
20:00 +24°C° 0 mm 1 m/s 662 mmHg 63%
21:00 +24°C° 0 mm 1 m/s 662 mmHg 58%
22:00 +24°C° 0 mm 2 m/s 663 mmHg 53%
23:00 +24°C° 0 mm 2 m/s 663 mmHg 48%
Voir plus

Nous avons besoin de votre consentement

Meteoprog et ses fournisseurs de services peuvent stocker et accéder à des données personnelles telles que des cookies, des identifiants d'appareils ou d'autres technologies similaires sur votre appareil et traiter ces données pour personnaliser le contenu et les publicités, ainsi que pour fournir des fonctionnalités de médias sociaux et analyser le trafic.

  • Stocker et/ou accéder à des informations sur votre appareil

    Des cookies, des identifiants d'appareils ou d'autres informations peuvent être stockés ou accessibles sur votre appareil aux fins indiquées ci-dessus.

  • Annonces et contenus personnalisés, mesure des annonces et des contenus, connaissance de l'audience et développement de produits

    Les annonces et le contenu peuvent être personnalisés en fonction d'un profil. D'autres données peuvent être ajoutées pour mieux personnaliser les annonces et le contenu. Les performances des publicités et du contenu peuvent être mesurées. Il est possible d'obtenir des informations sur le public qui a vu les publicités et le contenu. Ces données peuvent être utilisées pour développer ou améliorer l'expérience de l'utilisateur, les systèmes et les logiciels.

En cliquant sur "J'accepte", vous autorisez l'utilisation de cookies, des identifiants d'appareils, des balises web ou d'autres technologies similaires. Vos paramètres peuvent être modifiés dans le navigateur de votre appareil.

Dans certains cas, des intérêts légitimes peuvent être invoqués plutôt qu'un consentement. Vous pouvez en savoir plus à ce sujet dans notre Politique de confidentialité et de cookies.